Time,TemperatureF,DewpointF,PressureIn,WindDirection,WindDirectionDegrees,WindSpeedMPH,WindSpeedGustMPH,Humidity,HourlyPrecipIn,Conditions,Clouds,dailyrainin,SoftwareType,DateUTC
2013-01-03 00:01:00,41.3,33.6,30.05,SSW,198,0.0,0.0,74,0.00,,,0.00,Wunderground v.1.15,2013-01-03 05:01:00,
2013-01-03 00:05:00,41.2,33.5,30.04,SSW,198,0.0,0.0,74,0.00,,,0.00,Wunderground v.1.15,2013-01-03 05:05:00,
2013-01-03 00:15:00,41.1,34.1,30.04,SSW,198,0.0,0.0,76,0.00,,,0.00,Wunderground v.1.15,2013-01-03 05:15:00,
2013-01-03 00:25:00,41.0,33.7,30.04,SSW,198,0.0,0.0,75,0.00,,,0.00,Wunderground v.1.15,2013-01-03 05:25:00,
2013-01-03 00:30:00,40.9,33.6,30.03,SSW,198,0.0,0.0,75,0.00,,,0.00,Wunderground v.1.15,2013-01-03 05:30:00,
2013-01-03 00:40:00,40.8,33.5,30.04,SSW,198,0.0,0.0,75,0.00,,,0.00,Wunderground v.1.15,2013-01-03 05:40:00,
2013-01-03 00:50:00,40.7,33.1,30.04,SSW,198,0.0,0.0,74,0.00,,,0.00,Wunderground v.1.15,2013-01-03 05:50:00,
2013-01-03 01:00:00,40.7,33.4,30.03,South,188,0.0,0.0,75,0.00,,,0.00,Wunderground v.1.15,2013-01-03 06:00:00,
2013-01-03 01:10:00,40.6,33.6,30.04,South,188,0.0,0.0,76,0.00,,,0.00,Wunderground v.1.15,2013-01-03 06:10:00,
2013-01-03 01:20:00,40.6,34.0,30.04,South,173,0.0,0.0,77,0.00,,,0.00,Wunderground v.1.15,2013-01-03 06:20:00,
2013-01-03 01:30:00,40.6,33.6,30.04,NE,55,0.0,0.0,76,0.00,,,0.00,Wunderground v.1.15,2013-01-03 06:30:00,
2013-01-03 01:35:00,40.6,34.0,30.05,NE,55,0.0,0.0,77,0.00,,,0.00,Wunderground v.1.15,2013-01-03 06:35:00,
2013-01-03 01:45:00,40.6,34.0,30.05,NE,55,0.0,0.0,77,0.00,,,0.00,Wunderground v.1.15,2013-01-03 06:45:00,
2013-01-03 01:55:00,40.4,34.1,30.05,SSW,192,0.0,0.0,78,0.00,,,0.00,Wunderground v.1.15,2013-01-03 06:55:00,
2013-01-03 02:05:00,40.3,34.0,30.05,SSW,192,0.0,0.0,78,0.00,,,0.00,Wunderground v.1.15,2013-01-03 07:05:00,
2013-01-03 02:15:00,40.2,33.9,30.04,SSW,192,0.0,0.0,78,0.00,,,0.00,Wunderground v.1.15,2013-01-03 07:15:00,
2013-01-03 02:25:00,40.1,33.8,30.04,SSW,192,0.0,0.0,78,0.00,,,0.00,Wunderground v.1.15,2013-01-03 07:25:00,
2013-01-03 02:35:00,40.1,33.8,30.04,SSW,192,0.0,0.0,78,0.00,,,0.00,Wunderground v.1.15,2013-01-03 07:35:00,
2013-01-03 02:45:00,40.0,34.0,30.04,SSW,209,0.0,0.0,79,0.00,,,0.00,Wunderground v.1.15,2013-01-03 07:45:00,
2013-01-03 02:55:00,39.8,34.1,30.04,SSW,205,0.0,0.0,80,0.00,,,0.00,Wunderground v.1.15,2013-01-03 07:55:00,
2013-01-03 03:00:00,39.8,34.1,30.05,SSW,205,0.0,0.0,80,0.00,,,0.00,Wunderground v.1.15,2013-01-03 08:00:00,
2013-01-03 03:10:00,39.7,34.3,30.05,SSW,205,0.0,0.0,81,0.00,,,0.00,Wunderground v.1.15,2013-01-03 08:10:00,
2013-01-03 03:20:00,39.6,34.6,30.04,SSW,205,0.0,0.0,82,0.00,,,0.00,Wunderground v.1.15,2013-01-03 08:20:00,
2013-01-03 03:25:00,39.5,34.5,30.06,SSW,205,0.0,0.0,82,0.00,,,0.00,Wunderground v.1.15,2013-01-03 08:25:00,
2013-01-03 03:35:00,39.5,34.5,30.06,SSW,200,0.0,0.0,82,0.00,,,0.00,Wunderground v.1.15,2013-01-03 08:35:00,
2013-01-03 03:45:00,39.4,34.1,30.05,SSW,200,0.0,0.0,81,0.00,,,0.00,Wunderground v.1.15,2013-01-03 08:45:00,
2013-01-03 03:55:00,39.3,34.3,30.05,SSW,200,0.0,0.0,82,0.00,,,0.00,Wunderground v.1.15,2013-01-03 08:55:00,
2013-01-03 04:05:00,39.3,34.6,30.04,SSW,200,0.0,0.0,83,0.00,,,0.00,Wunderground v.1.15,2013-01-03 09:05:00,
2013-01-03 04:15:00,39.3,34.6,30.04,SSW,200,0.0,0.0,83,0.00,,,0.00,Wunderground v.1.15,2013-01-03 09:15:00,
2013-01-03 04:25:00,39.2,34.2,30.03,SSW,200,0.0,0.0,82,0.00,,,0.00,Wunderground v.1.15,2013-01-03 09:25:00,
2013-01-03 04:30:00,39.2,34.5,30.03,SSW,200,0.0,0.0,83,0.00,,,0.00,Wunderground v.1.15,2013-01-03 09:30:00,
2013-01-03 04:40:00,39.1,34.4,30.03,SE,127,0.0,0.0,83,0.00,,,0.00,Wunderground v.1.15,2013-01-03 09:40:00,
2013-01-03 04:50:00,39.0,34.3,30.03,ESE,102,0.0,0.0,83,0.00,,,0.00,Wunderground v.1.15,2013-01-03 09:50:00,
2013-01-03 05:00:00,38.9,34.2,30.03,ESE,102,0.0,0.0,83,0.00,,,0.00,Wunderground v.1.15,2013-01-03 10:00:00,
2013-01-03 05:10:00,38.9,34.2,30.04,ESE,102,0.0,0.0,83,0.00,,,0.00,Wunderground v.1.15,2013-01-03 10:10:00,
2013-01-03 05:20:00,38.8,34.4,30.03,ESE,102,0.0,0.0,84,0.00,,,0.00,Wunderground v.1.15,2013-01-03 10:20:00,
2013-01-03 05:30:00,38.7,34.3,30.04,SSW,197,0.0,0.0,84,0.00,,,0.00,Wunderground v.1.15,2013-01-03 10:30:00,
2013-01-03 05:40:00,38.5,34.1,30.05,SSW,197,0.0,0.0,84,0.00,,,0.00,Wunderground v.1.15,2013-01-03 10:40:00,
2013-01-03 05:50:00,38.3,34.2,30.05,SSW,197,0.0,0.0,85,0.00,,,0.00,Wunderground v.1.15,2013-01-03 10:50:00,
2013-01-03 06:00:00,38.1,34.0,30.06,SSW,193,0.0,0.0,85,0.00,,,0.00,Wunderground v.1.15,2013-01-03 11:00:00,
2013-01-03 06:05:00,38.0,33.9,30.06,SSW,193,0.0,0.0,85,0.00,,,0.00,Wunderground v.1.15,2013-01-03 11:05:00,
2013-01-03 06:15:00,37.8,34.0,30.06,SSW,193,0.0,0.0,86,0.00,,,0.00,Wunderground v.1.15,2013-01-03 11:15:00,
2013-01-03 06:25:00,37.6,34.1,30.07,SSW,193,0.0,0.0,87,0.00,,,0.00,Wunderground v.1.15,2013-01-03 11:25:00,
2013-01-03 06:35:00,37.5,34.3,30.07,SSW,193,0.0,0.0,88,0.00,,,0.00,Wunderground v.1.15,2013-01-03 11:35:00,
2013-01-03 06:45:00,37.4,34.2,30.07,SSW,193,0.0,0.0,88,0.00,,,0.00,Wunderground v.1.15,2013-01-03 11:45:00,
2013-01-03 06:55:00,37.3,34.4,30.07,SSW,193,0.0,0.0,89,0.00,,,0.00,Wunderground v.1.15,2013-01-03 11:55:00,
2013-01-03 07:05:00,37.3,34.4,30.08,SSW,193,0.0,0.0,89,0.00,,,0.00,Wunderground v.1.15,2013-01-03 12:05:00,
2013-01-03 07:15:00,37.2,34.3,30.08,SSW,193,0.0,0.0,89,0.00,,,0.00,Wunderground v.1.15,2013-01-03 12:15:00,
2013-01-03 07:25:00,37.2,34.3,30.08,SSW,193,0.0,0.0,89,0.00,,,0.00,Wunderground v.1.15,2013-01-03 12:25:00,
2013-01-03 07:35:00,37.0,34.3,30.08,SSW,202,0.0,0.0,90,0.00,,,0.00,Wunderground v.1.15,2013-01-03 12:35:00,
2013-01-03 07:45:00,36.9,34.2,30.08,SSW,202,0.0,0.0,90,0.00,,,0.00,Wunderground v.1.15,2013-01-03 12:45:00,
2013-01-03 07:55:00,37.0,34.6,30.09,SSW,202,0.0,0.0,91,0.00,,,0.00,Wunderground v.1.15,2013-01-03 12:55:00,
2013-01-03 08:00:00,37.0,34.6,30.09,SSW,202,0.0,0.0,91,0.00,,,0.00,Wunderground v.1.15,2013-01-03 13:00:00,
2013-01-03 08:10:00,36.9,34.5,30.08,SSW,202,0.0,0.0,91,0.00,,,0.00,Wunderground v.1.15,2013-01-03 13:10:00,
2013-01-03 08:20:00,36.8,34.4,30.09,SSW,198,0.0,0.0,91,0.00,,,0.00,Wunderground v.1.15,2013-01-03 13:20:00,
2013-01-03 08:25:00,36.8,34.4,30.09,SSW,198,0.0,0.0,91,0.00,,,0.00,Wunderground v.1.15,2013-01-03 13:25:00,
2013-01-03 08:30:00,36.8,34.4,30.09,SSW,198,0.0,0.0,91,0.00,,,0.00,Wunderground v.1.15,2013-01-03 13:30:00,
2013-01-03 08:40:00,36.9,34.5,30.09,SSW,198,0.0,0.0,91,0.00,,,0.00,Wunderground v.1.15,2013-01-03 13:40:00,
2013-01-03 08:50:00,36.9,34.5,30.09,SSW,211,0.0,0.0,91,0.00,,,0.00,Wunderground v.1.15,2013-01-03 13:50:00,
2013-01-03 08:55:00,37.0,34.6,30.09,SSW,211,0.0,0.0,91,0.00,,,0.00,Wunderground v.1.15,2013-01-03 13:55:00,
2013-01-03 09:00:00,36.9,34.5,30.10,SSW,211,0.0,0.0,91,0.00,,,0.00,Wunderground v.1.15,2013-01-03 14:00:00,
2013-01-03 09:10:00,37.0,34.9,30.10,SSW,211,0.0,0.0,92,0.00,,,0.00,Wunderground v.1.15,2013-01-03 14:10:00,
2013-01-03 09:20:00,37.0,34.9,30.11,SSW,211,0.0,0.0,92,0.00,,,0.00,Wunderground v.1.15,2013-01-03 14:20:00,
2013-01-03 09:25:00,37.1,35.0,30.11,SSW,211,0.0,0.0,92,0.00,,,0.00,Wunderground v.1.15,2013-01-03 14:25:00,
2013-01-03 09:35:00,37.2,35.1,30.11,ESE,107,0.0,0.0,92,0.00,,,0.00,Wunderground v.1.15,2013-01-03 14:35:00,
2013-01-03 09:45:00,37.3,35.5,30.11,ESE,109,0.0,0.0,93,0.00,,,0.00,Wunderground v.1.15,2013-01-03 14:45:00,
2013-01-03 09:55:00,37.5,35.7,30.11,ESE,109,0.0,0.0,93,0.00,,,0.00,Wunderground v.1.15,2013-01-03 14:55:00,
2013-01-03 10:00:00,37.5,35.7,30.12,ESE,109,0.0,0.0,93,0.00,,,0.00,Wunderground v.1.15,2013-01-03 15:00:00,
2013-01-03 10:10:00,37.7,35.9,30.12,ESE,109,0.0,0.0,93,0.00,,,0.00,Wunderground v.1.15,2013-01-03 15:10:00,
2013-01-03 10:15:00,37.7,35.9,30.12,ESE,109,0.0,0.0,93,0.00,,,0.00,Wunderground v.1.15,2013-01-03 15:15:00,
2013-01-03 10:20:00,37.6,35.8,30.12,SE,146,0.0,0.0,93,0.00,,,0.00,Wunderground v.1.15,2013-01-03 15:20:00,
2013-01-03 10:30:00,37.6,35.8,30.12,SE,144,0.0,0.0,93,0.00,,,0.00,Wunderground v.1.15,2013-01-03 15:30:00,
2013-01-03 10:40:00,37.6,35.8,30.11,South,173,0.0,0.0,93,0.00,,,0.00,Wunderground v.1.15,2013-01-03 15:40:00,
2013-01-03 10:45:00,37.7,35.9,30.11,South,184,0.0,0.0,93,0.00,,,0.00,Wunderground v.1.15,2013-01-03 15:45:00,
2013-01-03 10:55:00,37.8,36.0,30.11,South,188,0.0,0.0,93,0.00,,,0.00,Wunderground v.1.15,2013-01-03 15:55:00,
2013-01-03 11:00:00,37.8,36.0,30.11,South,188,0.0,0.0,93,0.00,,,0.00,Wunderground v.1.15,2013-01-03 16:00:00,
2013-01-03 11:10:00,37.9,36.1,30.11,South,188,0.0,0.0,93,0.00,,,0.00,Wunderground v.1.15,2013-01-03 16:10:00,
2013-01-03 11:20:00,38.2,36.4,30.11,South,188,0.0,0.0,93,0.00,,,0.00,Wunderground v.1.15,2013-01-03 16:20:00,
2013-01-03 11:25:00,38.4,36.6,30.11,South,188,0.0,0.0,93,0.00,,,0.00,Wunderground v.1.15,2013-01-03 16:25:00,
2013-01-03 11:35:00,38.4,36.3,30.10,South,188,0.0,0.0,92,0.00,,,0.00,Wunderground v.1.15,2013-01-03 16:35:00,
2013-01-03 11:45:00,38.7,36.6,30.08,South,188,0.0,0.0,92,0.00,,,0.00,Wunderground v.1.15,2013-01-03 16:45:00,
2013-01-03 11:55:00,38.9,36.8,30.08,South,188,0.0,0.0,92,0.00,,,0.00,Wunderground v.1.15,2013-01-03 16:55:00,
2013-01-03 12:00:00,39.0,36.6,30.08,South,189,0.0,0.0,91,0.00,,,0.00,Wunderground v.1.15,2013-01-03 17:00:00,
2013-01-03 12:10:00,39.1,36.4,30.08,South,189,0.0,0.0,90,0.00,,,0.00,Wunderground v.1.15,2013-01-03 17:10:00,
2013-01-03 12:20:00,39.4,36.7,30.08,South,189,0.0,0.0,90,0.00,,,0.00,Wunderground v.1.15,2013-01-03 17:20:00,
2013-01-03 12:30:00,39.7,37.0,30.07,South,189,0.0,0.0,90,0.00,,,0.00,Wunderground v.1.15,2013-01-03 17:30:00,
2013-01-03 12:35:00,39.9,37.2,30.08,SSW,196,0.0,0.0,90,0.00,,,0.00,Wunderground v.1.15,2013-01-03 17:35:00,
2013-01-03 12:40:00,40.1,37.1,30.08,SSW,196,0.0,0.0,89,0.00,,,0.00,Wunderground v.1.15,2013-01-03 17:40:00,
2013-01-03 12:45:00,40.2,37.5,30.08,SSW,196,0.0,0.0,90,0.00,,,0.00,Wunderground v.1.15,2013-01-03 17:45:00,
2013-01-03 12:50:00,40.2,37.2,30.08,SSW,201,0.0,0.0,89,0.00,,,0.00,Wunderground v.1.15,2013-01-03 17:50:00,
2013-01-03 13:00:00,40.6,37.6,30.07,SSW,201,0.0,0.0,89,0.00,,,0.00,Wunderground v.1.15,2013-01-03 18:00:00,
2013-01-03 13:10:00,40.9,37.3,30.06,SSW,202,0.0,0.0,87,0.00,,,0.00,Wunderground v.1.15,2013-01-03 18:10:00,
2013-01-03 13:15:00,41.0,38.9,30.06,SW,227,0.0,0.0,92,0.00,,,0.00,Wunderground v.1.15,2013-01-03 18:15:00,
2013-01-03 13:20:00,41.2,37.6,30.06,West,273,0.0,0.0,87,0.00,,,0.00,Wunderground v.1.15,2013-01-03 18:20:00,
2013-01-03 13:25:00,41.5,37.9,30.06,West,281,0.0,0.0,87,0.00,,,0.00,Wunderground v.1.15,2013-01-03 18:25:00,
2013-01-03 13:35:00,41.9,37.7,30.06,WNW,287,0.0,0.0,85,0.00,,,0.00,Wunderground v.1.15,2013-01-03 18:35:00,
2013-01-03 13:40:00,41.9,37.7,30.06,WNW,286,0.0,0.0,85,0.00,,,0.00,Wunderground v.1.15,2013-01-03 18:40:00,
2013-01-03 13:45:00,41.9,37.4,30.06,SW,234,0.0,0.0,84,0.00,,,0.00,Wunderground v.1.15,2013-01-03 18:45:00,
2013-01-03 13:50:00,41.8,37.3,30.06,SW,234,0.0,0.0,84,0.00,,,0.00,Wunderground v.1.15,2013-01-03 18:50:00,
2013-01-03 13:55:00,41.8,37.6,30.06,SW,234,0.0,0.0,85,0.00,,,0.00,Wunderground v.1.15,2013-01-03 18:55:00,
2013-01-03 14:01:00,41.9,37.7,30.06,SW,234,0.0,0.0,85,0.00,,,0.00,Wunderground v.1.15,2013-01-03 19:01:00,
2013-01-03 14:10:00,42.2,37.7,30.06,SW,234,0.0,0.0,84,0.00,,,0.00,Wunderground v.1.15,2013-01-03 19:10:00,
2013-01-03 14:15:00,42.5,38.3,30.05,SW,234,0.0,0.0,85,0.00,,,0.00,Wunderground v.1.15,2013-01-03 19:15:00,
2013-01-03 14:52:00,44.6,38.5,30.07,WSW,242,0.0,0.0,79,0.00,,,0.00,Wunderground v.1.15,2013-01-03 19:52:00,
2013-01-03 15:01:00,44.3,38.2,30.07,SW,215,0.0,0.0,79,0.00,,,0.00,Wunderground v.1.15,2013-01-03 20:01:00,
2013-01-03 15:10:00,44.1,38.0,30.08,SW,215,0.0,0.0,79,0.00,,,0.00,Wunderground v.1.15,2013-01-03 20:10:00,
2013-01-03 15:15:00,44.0,38.5,30.07,SW,215,0.0,0.0,81,0.00,,,0.00,Wunderground v.1.15,2013-01-03 20:15:00,
2013-01-03 15:20:00,44.0,38.2,30.07,SW,215,0.0,0.0,80,0.00,,,0.00,Wunderground v.1.15,2013-01-03 20:20:00,
2013-01-03 15:30:00,43.8,38.0,30.07,SSW,209,0.0,0.0,80,0.00,,,0.00,Wunderground v.1.15,2013-01-03 20:30:00,
2013-01-03 15:35:00,43.6,38.2,30.07,SSW,209,0.0,0.0,81,0.00,,,0.00,Wunderground v.1.15,2013-01-03 20:35:00,
2013-01-03 15:40:00,43.5,38.1,30.08,SSW,209,0.0,0.0,81,0.00,,,0.00,Wunderground v.1.15,2013-01-03 20:40:00,
2013-01-03 15:45:00,43.4,38.0,30.08,SSW,209,0.0,0.0,81,0.00,,,0.00,Wunderground v.1.15,2013-01-03 20:45:00,
2013-01-03 15:50:00,43.4,38.0,30.08,SSW,209,0.0,0.0,81,0.00,,,0.00,Wunderground v.1.15,2013-01-03 20:50:00,
2013-01-03 15:55:00,43.5,38.1,30.08,SSW,209,0.0,0.0,81,0.00,,,0.00,Wunderground v.1.15,2013-01-03 20:55:00,
2013-01-03 16:01:00,43.4,38.0,30.08,SSW,209,0.0,0.0,81,0.00,,,0.00,Wunderground v.1.15,2013-01-03 21:01:00,
2013-01-03 16:10:00,43.3,37.9,30.09,SSW,209,0.0,0.0,81,0.00,,,0.00,Wunderground v.1.15,2013-01-03 21:10:00,
2013-01-03 16:15:00,43.3,37.9,30.09,SSW,209,0.0,0.0,81,0.00,,,0.00,Wunderground v.1.15,2013-01-03 21:15:00,
2013-01-03 16:25:00,43.3,37.9,30.10,SSW,209,0.0,0.0,81,0.00,,,0.00,Wunderground v.1.15,2013-01-03 21:25:00,
2013-01-03 16:30:00,43.2,38.1,30.10,SSW,209,0.0,0.0,82,0.00,,,0.00,Wunderground v.1.15,2013-01-03 21:30:00,
2013-01-03 16:35:00,43.2,37.8,30.10,SSW,209,0.0,0.0,81,0.00,,,0.00,Wunderground v.1.15,2013-01-03 21:35:00,
2013-01-03 16:40:00,43.0,37.6,30.10,SSW,198,0.0,0.0,81,0.00,,,0.00,Wunderground v.1.15,2013-01-03 21:40:00,
2013-01-03 16:45:00,42.6,34.2,30.11,SE,134,0.0,0.0,72,0.00,,,0.00,Wunderground v.1.15,2013-01-03 21:45:00,
2013-01-03 16:50:00,42.2,32.0,30.11,East,84,0.0,0.0,67,0.00,,,0.00,Wunderground v.1.15,2013-01-03 21:50:00,
2013-01-03 17:01:00,42.0,30.7,30.12,NE,52,0.0,0.0,64,0.00,,,0.00,Wunderground v.1.15,2013-01-03 22:01:00,
2013-01-03 17:10:00,41.6,30.3,30.12,ENE,58,1.0,1.0,64,0.00,,,0.00,Wunderground v.1.15,2013-01-03 22:10:00,
2013-01-03 17:15:00,41.4,30.1,30.12,ENE,68,1.0,1.0,64,0.00,,,0.00,Wunderground v.1.15,2013-01-03 22:15:00,
2013-01-03 17:20:00,41.1,29.8,30.11,East,79,1.0,1.0,64,0.00,,,0.00,Wunderground v.1.15,2013-01-03 22:20:00,
2013-01-03 17:25:00,40.7,29.5,30.11,ENE,76,0.0,1.0,64,0.00,,,0.00,Wunderground v.1.15,2013-01-03 22:25:00,
2013-01-03 17:30:00,40.4,29.2,30.11,East,80,0.0,0.0,64,0.00,,,0.00,Wunderground v.1.15,2013-01-03 22:30:00,
2013-01-03 17:35:00,40.1,28.9,30.12,ENE,71,0.0,0.0,64,0.00,,,0.00,Wunderground v.1.15,2013-01-03 22:35:00,
2013-01-03 17:40:00,39.8,28.6,30.12,East,79,0.0,0.0,64,0.00,,,0.00,Wunderground v.1.15,2013-01-03 22:40:00,
2013-01-03 17:45:00,39.6,28.8,30.13,ENE,63,0.0,0.0,65,0.00,,,0.00,Wunderground v.1.15,2013-01-03 22:45:00,
2013-01-03 17:50:00,39.3,28.1,30.13,ENE,65,0.0,0.0,64,0.00,,,0.00,Wunderground v.1.15,2013-01-03 22:50:00,
2013-01-03 17:55:00,39.5,27.9,30.13,East,80,0.0,0.0,63,0.00,,,0.00,Wunderground v.1.15,2013-01-03 22:55:00,
2013-01-03 18:05:00,39.3,27.7,30.14,ENE,75,1.0,5.0,63,0.00,,,0.00,Wunderground v.1.15,2013-01-03 23:05:00,
2013-01-03 18:10:00,39.2,27.7,30.14,East,89,1.0,1.0,63,0.00,,,0.00,Wunderground v.1.15,2013-01-03 23:10:00,
2013-01-03 18:15:00,39.1,27.6,30.14,ENE,74,2.0,4.0,63,0.00,,,0.00,Wunderground v.1.15,2013-01-03 23:15:00,
2013-01-03 18:20:00,38.9,27.4,30.14,ENE,76,3.0,3.0,63,0.00,,,0.00,Wunderground v.1.15,2013-01-03 23:20:00,
2013-01-03 18:25:00,38.9,27.4,30.14,NE,54,3.0,5.0,63,0.00,,,0.00,Wunderground v.1.15,2013-01-03 23:25:00,
2013-01-03 18:35:00,38.7,27.2,30.15,NE,52,2.0,5.0,63,0.00,,,0.00,Wunderground v.1.15,2013-01-03 23:35:00,
2013-01-03 18:40:00,38.5,27.0,30.16,NE,48,1.0,1.0,63,0.00,,,0.00,Wunderground v.1.15,2013-01-03 23:40:00,
2013-01-03 18:45:00,38.3,26.8,30.16,ENE,62,0.0,4.0,63,0.00,,,0.00,Wunderground v.1.15,2013-01-03 23:45:00,
2013-01-03 18:50:00,38.2,26.7,30.16,ENE,62,1.0,1.0,63,0.00,,,0.00,Wunderground v.1.15,2013-01-03 23:50:00,
2013-01-03 18:55:00,38.1,27.0,30.16,ENE,74,1.0,5.0,64,0.00,,,0.00,Wunderground v.1.15,2013-01-03 23:55:00,
2013-01-03 19:00:00,37.9,26.8,30.16,East,88,0.0,5.0,64,0.00,,,0.00,Wunderground v.1.15,2013-01-04 00:00:00,
2013-01-03 19:10:00,37.4,27.1,30.17,East,80,0.0,5.0,66,0.00,,,0.00,Wunderground v.1.15,2013-01-04 00:10:00,
2013-01-03 19:15:00,37.0,27.4,30.17,East,80,0.0,5.0,68,0.00,,,0.00,Wunderground v.1.15,2013-01-04 00:15:00,
2013-01-03 19:20:00,36.1,27.3,30.17,East,80,0.0,5.0,70,0.00,,,0.00,Wunderground v.1.15,2013-01-04 00:20:00,
2013-01-03 19:25:00,35.1,26.6,30.17,East,80,0.0,5.0,71,0.00,,,0.00,Wunderground v.1.15,2013-01-04 00:25:00,
2013-01-03 19:30:00,34.3,26.2,30.17,East,80,0.0,5.0,72,0.00,,,0.00,Wunderground v.1.15,2013-01-04 00:30:00,
2013-01-03 19:40:00,33.3,26.2,30.17,East,80,0.0,5.0,75,0.00,,,0.00,Wunderground v.1.15,2013-01-04 00:40:00,
2013-01-03 19:45:00,32.8,26.1,30.17,East,80,0.0,5.0,76,0.00,,,0.00,Wunderground v.1.15,2013-01-04 00:45:00,
2013-01-03 19:50:00,32.4,26.0,30.17,East,80,0.0,5.0,77,0.00,,,0.00,Wunderground v.1.15,2013-01-04 00:50:00,
2013-01-03 19:55:00,32.2,26.1,30.17,East,80,0.0,5.0,78,0.00,,,0.00,Wunderground v.1.15,2013-01-04 00:55:00,
2013-01-03 20:00:00,32.0,25.9,30.17,East,80,0.0,5.0,78,0.00,,,0.00,Wunderground v.1.15,2013-01-04 01:00:00,
2013-01-03 20:05:00,31.7,26.5,30.17,East,80,0.0,5.0,81,0.00,,,0.00,Wunderground v.1.15,2013-01-04 01:05:00,
2013-01-03 20:10:00,31.4,26.2,30.17,East,80,0.0,5.0,81,0.00,,,0.00,Wunderground v.1.15,2013-01-04 01:10:00,
2013-01-03 20:15:00,31.0,25.9,30.18,East,80,0.0,5.0,81,0.00,,,0.00,Wunderground v.1.15,2013-01-04 01:15:00,
2013-01-03 20:25:00,30.3,25.5,30.18,East,80,0.0,5.0,82,0.00,,,0.00,Wunderground v.1.15,2013-01-04 01:25:00,
2013-01-03 20:30:00,29.9,25.1,30.17,East,80,0.0,5.0,82,0.00,,,0.00,Wunderground v.1.15,2013-01-04 01:30:00,
2013-01-03 20:35:00,29.6,25.1,30.18,East,80,0.0,5.0,83,0.00,,,0.00,Wunderground v.1.15,2013-01-04 01:35:00,
2013-01-03 20:45:00,29.1,25.2,30.18,East,80,0.0,5.0,85,0.00,,,0.00,Wunderground v.1.15,2013-01-04 01:45:00,
2013-01-03 20:50:00,28.9,25.0,30.18,East,80,0.0,5.0,85,0.00,,,0.00,Wunderground v.1.15,2013-01-04 01:50:00,
2013-01-03 20:55:00,28.7,24.8,30.18,East,80,0.0,5.0,85,0.00,,,0.00,Wunderground v.1.15,2013-01-04 01:55:00,
2013-01-03 21:00:00,28.5,24.8,30.18,East,80,0.0,5.0,86,0.00,,,0.00,Wunderground v.1.15,2013-01-04 02:00:00,
2013-01-03 21:05:00,28.3,24.6,30.18,East,80,0.0,5.0,86,0.00,,,0.00,Wunderground v.1.15,2013-01-04 02:05:00,
2013-01-03 21:10:00,28.1,24.7,30.18,East,80,0.0,5.0,87,0.00,,,0.00,Wunderground v.1.15,2013-01-04 02:10:00,
2013-01-03 21:20:00,27.8,24.4,30.18,East,80,0.0,5.0,87,0.00,,,0.00,Wunderground v.1.15,2013-01-04 02:20:00,
2013-01-03 21:25:00,27.6,24.2,30.18,East,80,0.0,5.0,87,0.00,,,0.00,Wunderground v.1.15,2013-01-04 02:25:00,
2013-01-03 21:30:00,27.6,24.8,30.18,East,80,0.0,5.0,89,0.00,,,0.00,Wunderground v.1.15,2013-01-04 02:30:00,
2013-01-03 21:35:00,27.7,24.9,30.18,East,80,0.0,5.0,89,0.00,,,0.00,Wunderground v.1.15,2013-01-04 02:35:00,
2013-01-03 21:40:00,27.6,24.8,30.18,East,80,0.0,5.0,89,0.00,,,0.00,Wunderground v.1.15,2013-01-04 02:40:00,
2013-01-03 21:45:00,27.5,24.4,30.18,East,80,0.0,5.0,88,0.00,,,0.00,Wunderground v.1.15,2013-01-04 02:45:00,
2013-01-03 21:55:00,27.2,24.1,30.18,East,80,0.0,5.0,88,0.00,,,0.00,Wunderground v.1.15,2013-01-04 02:55:00,
2013-01-03 22:00:00,27.2,24.4,30.18,East,80,0.0,5.0,89,0.00,,,0.00,Wunderground v.1.15,2013-01-04 03:00:00,
2013-01-03 22:05:00,27.1,24.3,30.18,East,80,0.0,5.0,89,0.00,,,0.00,Wunderground v.1.15,2013-01-04 03:05:00,
2013-01-03 22:10:00,27.0,24.2,30.19,East,80,0.0,5.0,89,0.00,,,0.00,Wunderground v.1.15,2013-01-04 03:10:00,
2013-01-03 22:15:00,27.0,24.5,30.19,East,80,0.0,5.0,90,0.00,,,0.00,Wunderground v.1.15,2013-01-04 03:15:00,
2013-01-03 22:20:00,27.0,24.5,30.19,East,80,0.0,5.0,90,0.00,,,0.00,Wunderground v.1.15,2013-01-04 03:20:00,
2013-01-03 22:25:00,26.9,24.4,30.19,East,80,0.0,5.0,90,0.00,,,0.00,Wunderground v.1.15,2013-01-04 03:25:00,
2013-01-03 22:30:00,26.7,23.9,30.19,East,80,0.0,5.0,89,0.00,,,0.00,Wunderground v.1.15,2013-01-04 03:30:00,
2013-01-03 22:35:00,26.5,24.0,30.19,East,80,0.0,5.0,90,0.00,,,0.00,Wunderground v.1.15,2013-01-04 03:35:00,
2013-01-03 22:40:00,26.6,24.3,30.19,East,80,0.0,5.0,91,0.00,,,0.00,Wunderground v.1.15,2013-01-04 03:40:00,
2013-01-03 22:45:00,26.7,24.2,30.19,East,80,0.0,5.0,90,0.00,,,0.00,Wunderground v.1.15,2013-01-04 03:45:00,
2013-01-03 22:55:00,26.6,24.1,30.19,East,80,0.0,5.0,90,0.00,,,0.00,Wunderground v.1.15,2013-01-04 03:55:00,
2013-01-03 23:00:00,26.5,24.0,30.19,East,80,0.0,5.0,90,0.00,,,0.00,Wunderground v.1.15,2013-01-04 04:00:00,
2013-01-03 23:05:00,26.6,24.3,30.19,East,80,0.0,5.0,91,0.00,,,0.00,Wunderground v.1.15,2013-01-04 04:05:00,
2013-01-03 23:10:00,26.6,24.3,30.20,East,80,0.0,5.0,91,0.00,,,0.00,Wunderground v.1.15,2013-01-04 04:10:00,
2013-01-03 23:15:00,26.6,24.3,30.19,East,80,0.0,5.0,91,0.00,,,0.00,Wunderground v.1.15,2013-01-04 04:15:00,
2013-01-03 23:25:00,26.6,24.1,30.19,East,80,0.0,5.0,90,0.00,,,0.00,Wunderground v.1.15,2013-01-04 04:25:00,
2013-01-03 23:30:00,26.5,24.0,30.19,East,80,0.0,5.0,90,0.00,,,0.00,Wunderground v.1.15,2013-01-04 04:30:00,
2013-01-03 23:35:00,26.4,23.9,30.20,East,80,0.0,5.0,90,0.00,,,0.00,Wunderground v.1.15,2013-01-04 04:35:00,
2013-01-03 23:40:00,26.3,23.8,30.20,East,80,0.0,5.0,90,0.00,,,0.00,Wunderground v.1.15,2013-01-04 04:40:00,
2013-01-03 23:45:00,26.3,23.8,30.19,East,80,0.0,5.0,90,0.00,,,0.00,Wunderground v.1.15,2013-01-04 04:45:00,
2013-01-03 23:50:00,26.2,23.7,30.19,East,80,0.0,5.0,90,0.00,,,0.00,Wunderground v.1.15,2013-01-04 04:50:00,